Flag for Germany Weather past 2 weeks in Aachen, North Rhine-Westphalia, Germany

Now
55 °F

Passing clouds.


Feels Like: 55 °F
Forecast: 50 / 70 °F
Wind: 3 mph from Northwest

Location: Geilenkirchen Airport

Current Time: Oct 2, 2014 at 8:51:20 AM

Latest Report: Oct 2, 2014 at 7:50 AM


Visibility: 5 mi

Pressure: 30.39 "Hg

Humidity: 100%

Dew point: 55 °F

Location of AachenLocation

Historic Weather in Aachen — Graph

°F

Aachen temperature yesterday

Maximum temperature yesterday: 70 °F (at 1:50 PM)
Minimum temperature yesterday: 55 °F (at 9:50 PM)
Average temperature yesterday: 62 °F

Past Weeks' High & Low Weather Summary

 TemperatureHumidityPressure
High70 °F (Sep 27, 2:50 PM)100% (Sep 17, 7:50 AM)30.39 "Hg (Sep 17, 7:50 AM)
Low45 °F (Sep 23, 3:50 AM)0% (Sep 24, 10:50 PM)29.86 "Hg (Sep 24, 4:50 PM)
Average59 °F84%30.19 "Hg
* Reported Sep 17 7:50 AM — Oct 2 7:50 AM, Aachen, Weather by CustomWeather, © 2014

Note: Actual official high and low records may vary slightly from our data, if they occured in-between our weather recording intervals... More about our weather records

Advertising

Aachen weather history for previous 24 hours

 ConditionsComfort  
Time TempWeatherWind HumidityBarometerVisibility
7:50 AM
Oct 2
55 °FPassing clouds.3 mph100%30.39 "Hg5 mi
6:50 AM54 °FClear.2 mph100%30.36 "Hg10 mi
5:50 AM55 °FPassing clouds.No wind94%30.36 "HgN/A
4:50 AM55 °FPassing clouds.2 mph100%30.36 "HgN/A
3:50 AM55 °FClear.No wind100%30.36 "Hg10 mi
2:50 AM55 °FClear.No wind94%30.36 "Hg10 mi
1:50 AM55 °FClear.No wind94%30.36 "Hg10 mi
12:50 AM57 °FClear.3 mph94%30.36 "Hg10 mi
11:50 PM
Oct 1
55 °FClear.3 mph94%30.36 "Hg10 mi
10:50 PM55 °FClear.No wind94%30.36 "Hg10 mi
9:50 PM55 °FClear.No wind100%30.36 "Hg10 mi
8:50 PM57 °FClear.No wind94%30.33 "Hg10 mi
7:50 PM61 °FSunny.No wind88%30.33 "Hg10 mi
6:50 PM68 °FScattered clouds.3 mph69%30.33 "HgN/A
5:50 PM70 °FScattered clouds.7 mph60%30.30 "HgN/A
4:50 PM70 °FBroken clouds.7 mph60%30.30 "HgN/A
3:50 PM70 °FScattered clouds.8 mph64%30.30 "HgN/A
2:50 PM70 °FPassing clouds.9 mph69%30.33 "HgN/A
1:50 PM70 °FPassing clouds.8 mph69%30.33 "HgN/A
12:50 PM68 °FPassing clouds.9 mph73%30.33 "HgN/A
11:50 AM66 °FPassing clouds.10 mph78%30.33 "HgN/A
10:50 AM64 °FSunny.6 mph78%30.33 "Hg10 mi
9:50 AM61 °FPassing clouds.6 mph88%30.33 "Hg5 mi
8:50 AM57 °FFog.3 mph94%30.33 "Hg3 mi
Weather by CustomWeather, © 2014

See weather overviewHow to use our weather pages